Location: Chuathbaluk
(61.5726°N, 159.2454°W)
Time: 04:45:16
(UTC+00:00)

Transit 4A - Pass Details

Date: 29 November 2020
Orbit: 864 x 980 km, 66.8° (Epoch: 26 January)

Event Time Altitude Azimuth Distance (km) Brightness Sun altitude
Rises 02:56:59 0° 310° (NW) 3,695 11.3 -9.0°
Reaches altitude 10° 02:59:40 10° 305° (NW) 2,740 10.7 -9.3°
Maximum altitude 03:05:41 45° 235° (SW) 1,307 9.3 -9.9°
Drops below altitude 10° 03:11:35 10° 166° (SSE) 2,680 10.5 -10.5°
Sets 03:14:12 0° 160° (SSE) 3,606 11.1 -10.8°
